STARLINK-32713 (62487 NORAD) Tracking and Keplerian Element Data

This shows tracking and keplerian element data for the satellite.

Feedback or suggestion? Click here.




ElementValue
Catalog62487
NameSTARLINK-32713
Epoch Orbit554
Epoch Day34.83335648
Epoch Year2025
RAAN25.8583
Inclination43.0009
Eccentricity0.0001538
Argument of Perigee270.8999
Mean Anonmoly8.7839
Mean Motion15.4064152
Decay Rate0.00112684
L11 62487U 25003A 25034.83335648 .00112684 00000+0 26703-2 0 9992
L22 62487 43.0009 25.8583 0001538 270.8999 8.7839 15.40641520 5544



Live tracking and technical data element details for STARLINK-32713 (NORAD 62487). STARLINK-32713 can be tracked NOW for your location showing map with azimuth and elevation plus other details from your city location.







IsCatalogInMostPopularTable: catalog: 62487, numindb: 18
Update: records affected: 1



GetName: 62487 STARLINK-32713

Hit Count: updated at: Sat, 24 May 2025 15:27:27 GMT